Regional Weather Roundup
Issued by NWS Midland/Odessa, TX

Skip options and go directly to product.
Home | Oldest Version | Previous Version | Current Version | All | Graphics & Text | Save Text | Print | Product List | Glossary On

Skip product version selection by date and time.   
129
ASUS44 KMAF 021001
RWRMAF
MIDLAND AREA WEATHER ROUNDUP
NATIONAL WEATHER SERVICE MIDLAND TX
500 AM CDT THU JUL 02 2015

...IN SOUTHWEST TEXAS AND SOUTHEAST NEW MEXICO...

CITY           SKY/WX    TMP DP  RH WIND       PRES   REMARKS
ALPINE         NOT AVBL
ANDREWS        NOT AVBL
ARTESIA        CLEAR     70  63  78 S6        30.01S
BIG SPRING     NOT AVBL
CARLSBAD       CLEAR     70  62  76 S7        29.98F
DRYDEN           N/A     70  64  81 VRB5      29.96F
FORT STOCKTON  CLEAR     71  64  78 S14       29.97F
GUAD PASS      CLEAR     69  58  67 NE7       30.13F
HOBBS          CLEAR     66  66 100 S6        30.04S
MARFA          CLEAR    N/A N/A N/A N5        30.11F
MIDLAND AIRPK  NOT AVBL
MIDLAND INTL   CLOUDY    73  66  78 S13       29.99F
ODESSA         CLOUDY    73  64  73 S13       30.00F
PECOS          NOT AVBL
PRESIDIO       NOT AVBL
SEMINOLE       NOT AVBL
SNYDER         NOT AVBL
WINK           CLEAR     71  65  81 SE10      29.96S
$$
...OTHER STATIONS IN TEXAS...

CITY           SKY/WX    TMP DP  RH WIND       PRES   REMARKS
ABILENE        CLEAR     72  66  81 S10       29.99R
AMARILLO       CLOUDY    71  63  75 CALM      30.03S
AUSTIN         CLOUDY    70  70 100 S8        30.00S
BROWNSVILLE    PTCLDY    72  70  93 CALM      29.96F
CORPUS CHRISTI CLOUDY    72  70  93 CALM      29.97S
DALLAS FTW     PTCLDY    76  68  76 S13       29.95S
DEL RIO        CLEAR     72  65  78 E9        29.95F
EL PASO        PTCLDY    77  51  40 E7        29.98F
HOUSTON INT    MOCLDY    71  70  96 CALM      30.04R
LUBBOCK        MOCLDY    72  63  73 SW10      30.01R
SAN ANGELO     CLEAR     70  65  84 SW3       29.99S
SAN ANTONIO    PTCLDY    72  67  84 S6        30.02R
WACO           PTCLDY    72  69  90 S9        29.99S
WICHITA FALLS  NOT AVBL
$$
...OTHER LOCATIONS IN NEW MEXICO...

CITY           SKY/WX    TMP DP  RH WIND       PRES   REMARKS
ALAMAGORDO     PTCLDY    70  46  43 N3        30.01F
ALBUQUERQUE    CLOUDY    76  52  43 N9        30.13R
CANNON AFB     CLOUDY    73  60  63 N9        30.08F
CLOVIS         CLOUDY    72  59  64 NW13        N/A
HOLLOMAN AFB   PTCLDY    70  46  41 E3        29.99S
ROSWELL        PTCLDY    70  60  70 NW3       30.02S
RUIDOSO        PTCLDY    64  48  55 W3        30.24F
SANTA FE       CLOUDY    63  57  81 N8        30.22S
TRUTH OR CONSE PTCLDY    79  54  41 NW10      30.05F
TUCUMCARI      LGT RAIN  73  59  61 N5        30.07F
$$

USA.gov is the U.S. government's official web portal to all federal, state and local government web resources and services.